www.pogodaiklimat.ru
ПОГОДА в Гейтерсберге
Время
и дата
15:56 19.05
16:56 19.05
17:56 19.05
18:56 19.05
19:56 19.05
20:56 19.05
21:56 19.05
22:56 19.05
23:56 19.05
00:56 20.05
01:23 20.05
01:32 20.05
01:56 20.05
02:48 20.05
02:56 20.05
03:00 20.05
03:13 20.05
03:56 20.05
04:56 20.05
05:28 20.05
05:32 20.05
05:40 20.05
05:52 20.05
05:56 20.05
06:56 20.05
07:56 20.05
08:28 20.05
08:56 20.05
09:42 20.05
09:56 20.05
10:18 20.05
10:56 20.05
11:56 20.05
12:08 20.05
12:56 20.05
13:56 20.05
14:56 20.05
15:56 20.05
16:56 20.05
17:56 20.05
18:56 20.05
19:56 20.05
20:56 20.05
21:56 20.05
22:56 20.05
23:56 20.05
00:56 21.05
01:21 21.05
Ветер
(напр.,м/с)
Видим. Явления Облачность Т
(С)
Тd
(С)
f
(%)
Тe
(С)
Тes
(С)
Комфортность P
(гПа)
Po
(гПа)
Тmin
(С)
Tmax
(С)
R
(мм)
R24
(мм)
S
(см)
штиль 0 16 км 8/8 990 м +22.2 +16.1 68 +26 +30 душно 1016.7 997.0
штиль 0 16 км 5/5 1050 м +23.3 +15.6 62 +28 +33 душно 1016.5 997.0
СЗ 2 16 км ясно +22.8 +15.6 64 +27 +31 душно 1016.4 996.7
штиль 0 16 км ясно +20.6 +15.6 73 +23 +25 комфорт 1016.8 997.0 +20.6 +24.4
штиль 0 16 км ясно +17.8 +16.1 90 +18 +18 1017.1 997.4
штиль 0 16 км ясно +16.1 +15.6 97 +16 +16 1017.8 998.0
штиль 0 16 км ясно +15.0 +15.0 100 +15 +15 1018.1 998.4
штиль 0 16 км ясно +15.0 +15.0 100 +15 +15 1018.1 998.4
штиль 0 14 км 5/5 1800 м +14.4 +14.4 100 +14 +14 1018.1 998.4
штиль 0 16 км ясно +14.4 +14.4 100 +14 +14 1017.9 998.0 +13.9 +20.6
штиль 0 2 км дымка ясно +14.0 +14.0 100 +13 +13 998.0
штиль 0 6 км дымка ясно +14.0 +14.0 100 +13 +13 998.0
штиль 0 14 км ясно +14.4 +14.4 100 +14 +14 1017.8 998.0
штиль 0 5 км дымка 8/8 90 м +14.0 +14.0 100 +13 +13 998.0
нст 2 2 км дымка 8/8 90 м +15.0 +15.0 100 +15 +15 1017.6 998.0
штиль 0 1 км дымка 8/8 90 м +15.0 +15.0 100 +15 +15 998.0
штиль 0 400 м туман 10/10 90 м +15.0 +15.0 100 +15 +15 997.7
нст 2 400 м туман 10/10 90 м +15.0 +15.0 100 +15 +15 1017.5 998.0
ЮВ 2 400 м туман 10/10 90 м +15.0 +15.0 100 +15 +15 1017.8 998.0
нст 2 1 км дымка 10/10 90 м +15.0 +15.0 100 +15 +15 998.7
штиль 0 2 км дымка 10/10 90 м +15.0 +15.0 100 +15 +15 998.7
штиль 0 5 км дымка 10/10 90 м +15.0 +15.0 100 +15 +15 999.0
штиль 0 6 км дымка 10/10 150 м +15.0 +15.0 100 +15 +15 999.4
штиль 0 5 км дымка 10/10 150 м +15.6 +15.6 100 +15 +15 1019.1 999.4
ЮВ 3 16 км 10/10 150 м +15.6 +15.6 100 +15 +15 1019.9 1000.4 +13.9 +15.6
В 2 16 км 10/10 150 м +16.1 +15.6 97 +16 +16 1020.3 1000.4
ЮВ 3 16 км 10/10 210 м +17.0 +16.0 94 +17 +17 1000.7
ЮВ 2 16 км 10/10 270 м +17.8 +16.1 90 +18 +18 1020.2 1000.4
штиль 0 16 км 10/10 330 м +19.0 +16.0 83 +20 +20 1000.4
штиль 0 16 км 10/10 390 м +18.9 +16.1 84 +20 +20 1020.4 1000.7
штиль 0 16 км 10/10 450 м +21.0 +16.0 73 +24 +24 комфорт 1000.4
штиль 0 16 км 8/8 570 м +21.1 +16.1 73 +24 +29 комфорт 1020.2 1000.4
З 3 16 км 8/8 630 м +23.3 +17.2 69 +29 +32 душно 1019.4 999.7
нст 3 16 км 5/5 690 м +23.0 +17.0 69 +28 +36 душно 999.7
штиль 0 16 км 2/2 810 м +25.0 +17.2 62 +29 +50 душно 1019.0 999.7 +15.6 +25.0
З 3 16 км ясно +25.6 +18.3 64 +30 +46 душно 1018.4 999.0
штиль 0 13 км 5/5 1110 м +26.7 +17.2 56 +31 +42 душно 1018.0 998.4
Ю 2 16 км ясно +27.2 +16.1 51 +31 +43 душно 1017.5 998.0
нст 2 16 км 5/5 1320 м +27.2 +16.7 53 +31 +35 душно 1017.0 997.4
ЮВ 3 16 км ясно +25.0 +16.7 60 +29 +32 душно 1017.0 997.7
ЮВ 2 16 км ясно +22.2 +16.7 71 +27 +28 душно 1017.4 997.7 +22.2 +28.3
ЮВ 2 16 км ясно +20.6 +16.7 78 +25 +25 комфорт 1017.6 998.0
ЮВ 2 16 км ясно +18.9 +17.8 93 +21 +21 комфорт 1018.3 998.7
ЮВ 3 16 км ясно +17.8 +17.2 96 +18 +18 1018.2 998.7
штиль 0 16 км ясно +17.2 +16.7 97 +17 +17 1017.7 998.0
штиль 0 13 км ясно +16.1 +16.1 100 +16 +16 1018.0 998.4
штиль 0 13 км ясно +15.6 +15.6 100 +15 +15 1017.8 998.4 +15.6 +22.2
штиль 0 2 км дымка ясно +16.0 +16.0 100 +16 +16 998.0
Местоположение метеостанции Montgomery County Airpark: широта 39.1673 долгота -77.1614 высота над уровнем моря 154 м.
В архиве по умолчанию представлена погода в Гейтерсберге за последние 1-2 суток. Обновление информации о фактической погоде в базе происходит ежечасно! Архивные данные за месяц целиком и за предыдущие месяцы Вы можете получить, выбрав интересующий диапазон дат из раскрывающегося списка и нажав кнопку "Ввод!".
Внимание! Архив погоды МЕТАР в базе сайта по станциям, не включенным в климатический монитор, хранится не более 60 дней. Нет смысла пытаться выбрать более раннюю дату.
*Определитесь, кто Вы:
Внимание! Время в таблицах - местное (без учета летнего времени). Для получения всемирного времени необходимо вычесть поправку, которая равна -5 ч.
Смотрите также архив погоды в соседних городах и на ближайших метеорологических станциях:
Партнеры нашего сайта:      
Пояснения к столбцам:
  • Ветер - указаны скорость ветра в м/с - средняя за 10 мин, порывы в срок и между сроками (в фигурных скобках) и направление, откуда дует ветер: С - северный,
  • СВ - северо-восточный, В - восточный, ЮВ - юго-восточный, Ю - южный, ЮЗ - юго-западный, З - западный, СЗ - северо-западный.
  • Видимость - горизонтальная дальность видимости в метрах или километрах. При видимости от 1 до 10 км при отсутствии осадков обычно наблюдается дымка, при ухудшении видимости до 1 км и менее - туман. В сухую погоду видимость может ухудшаться дымом, пылью или мглою.
  • Явления - указаны атмосферные явления, наблюдавшиеся в срок или в последний час перед сроком; фигурными скобками обозначены явления, наблюдавшиеся между сроками (за 1-3 часа до срока); квадратными скобками обозначены град или гололедные отложения с указанием их диаметра в мм.
  • Облачность - указаны через наклонную черту общая и нижняя облачность в баллах и высота нижней границы облаков в метрах; квадратными скобками обозначены формы облаков: Ci - перистые, Cs - перисто-слоистые, Cc - перисто-кучевые, Ac - высококучевые, As - высокослоистые, Sc - слоисто-кучевые, Ns - слоисто-дождевые, Cu - кучевые, Cb - кучево-дождевые. Подробнее классификацию облаков см. в Атласе облаков (PDF).
  • T - Температура воздуха - температура, измеренная на высоте 2 м над землей.
  • Td - Температура точки росы - температура, при понижении до которой содержащийся в воздухе водяной пар достигнет насыщения.
  • f - Относительная влажность воздуха - влажноcть воздуха, измеренная на высоте 2 м над землей.
  • Te - Эффективная температура - температура, которую ощущает одетый по сезону человек в тени. Характеристика душности погоды. При расчете учитывается влияние влажности воздуха и скорости ветра на теплоощущения человека.
  • Tes - Эффективная температура на солнце - температура, которую ощущает человек, с поправкой на солнечный нагрев. Характеристика знойности погоды. Зависит от высоты солнца над горизонтом, облачности и скорости ветра. Ночью, в пасмурную погоду, а также при ветре 12 м/с и более поправка равна нулю.
  • P - Атмосферное давление - приведенное к уровню моря атмосферное давление.
  • Po - Атмосферное давление - измеренное на уровне метеостанции атмосферное давление.
  • Tmin - Минимальная температура - минимум температуры воздуха на высоте 2 м над землей.
  • Tmax - Максимальная температура - максимум температуры воздуха на высоте 2 м над землей.
  • R - Количество осадков - Количество выпавших осадков за период времени, мм. При наведении курсора мыши на число - период времени, за который выпало указанное количество осадков.
  • R24 - Количество осадков - Количество выпавших осадков за 24 часа, мм.
  • S - Снежный покров - Высота снежного покрова, см. При наведении курсора мыши на число - состояние снежного покрова и степень покрытия местности в баллах.